Flag for Australia Weather past 2 weeks in Perth, Western Australia, Australia

Now
68 °F

Partly sunny.


Feels Like: 68 °F
Forecast: 53 / 77 °F
Wind: 13 mph from Southwest

Location: Belmont Perth Airport

Current Time: Oct 26, 2014 at 9:32:41 AM

Latest Report: Oct 26, 2014 at 9:00 AM


Visibility: N/A

Pressure: 30.18 "Hg

Humidity: 46%

Dew point: 46 °F

Location of PerthLocation

Historic Weather in Perth — Graph

°F

Perth temperature yesterday

Maximum temperature yesterday: 72 °F (at 1:30 PM)
Minimum temperature yesterday: 54 °F (at 1:30 AM)
Average temperature yesterday: 63 °F

Past Weeks' High & Low Weather Summary

 TemperatureHumidityPressure
High95 °F (Oct 15, 2:00 PM)100% (Oct 12, 4:00 AM)30.24 "Hg (Oct 12, 4:00 AM)
Low45 °F (Oct 21, 5:00 AM)13% (Oct 14, 1:30 PM)29.71 "Hg (Oct 16, 3:00 AM)
Average65 °F62%30.00 "Hg
* Reported Oct 11 8:00 AM — Oct 26 8:00 AM, Perth, Weather by CustomWeather, © 2014

Note: Actual official high and low records may vary slightly from our data, if they occured in-between our weather recording intervals... More about our weather records

Advertising

Perth weather history for previous 24 hours

 ConditionsComfort  
Time TempWeatherWind HumidityBarometerVisibility
8:00 AM
Oct 26
64 °FPartly sunny.10 mph64%30.15 "HgN/A
7:30 AM64 °FPartly sunny.12 mph56%30.15 "HgN/A
7:00 AM64 °FPartly sunny.9 mph60%30.15 "HgN/A
6:30 AM63 °FPartly sunny.6 mph68%30.12 "HgN/A
6:00 AM63 °FPartly sunny.8 mph68%30.12 "HgN/A
5:30 AM63 °FBroken clouds.7 mph64%30.12 "HgN/A
5:00 AM63 °FPartly sunny.8 mph64%30.09 "HgN/A
4:30 AM63 °FPartly sunny.7 mph64%30.09 "HgN/A
4:00 AM63 °FPassing clouds.12 mph64%30.09 "HgN/A
3:30 AM61 °FPartly cloudy.10 mph72%30.09 "HgN/A
3:00 AM57 °FPartly cloudy.7 mph88%30.09 "HgN/A
2:30 AM59 °FClear.6 mph77%30.09 "Hg10 mi
2:00 AM59 °FClear.7 mph72%30.09 "Hg10 mi
1:30 AM61 °FClear.6 mph68%30.09 "Hg10 mi
1:00 AM59 °FClear.7 mph72%30.09 "Hg10 mi
12:30 AM61 °FPassing clouds.8 mph68%30.09 "HgN/A
12:00 AM61 °FPassing clouds.6 mph72%30.09 "HgN/A
11:30 PM
Oct 25
61 °FPassing clouds.7 mph72%30.12 "HgN/A
11:00 PM61 °FPassing clouds.8 mph72%30.09 "HgN/A
10:30 PM61 °FPassing clouds.9 mph72%30.09 "HgN/A
10:00 PM63 °FPassing clouds.10 mph73%30.09 "HgN/A
9:30 PM64 °FPartly cloudy.10 mph73%30.09 "HgN/A
9:00 PM64 °FPassing clouds.10 mph78%30.09 "HgN/A
8:30 PM63 °FPassing clouds.10 mph83%30.09 "HgN/A
8:00 PM64 °FPartly cloudy.13 mph78%30.09 "HgN/A
7:30 PM64 °FPartly cloudy.10 mph78%30.09 "HgN/A
7:00 PM64 °FPartly cloudy.13 mph83%30.09 "HgN/A
6:30 PM64 °FScattered showers. Partly cloudy.7 mph88%30.07 "HgN/A
6:00 PM64 °FPassing clouds.10 mph88%30.07 "HgN/A
5:30 PM64 °FSprinkles. Partly sunny.13 mph88%30.07 "Hg2 mi
5:00 PM66 °FSprinkles. Broken clouds.9 mph78%30.04 "Hg2 mi
4:30 PM70 °FPartly sunny.13 mph60%30.04 "HgN/A
4:00 PM70 °FPartly sunny.15 mph60%30.04 "HgN/A
3:30 PM70 °FPartly sunny.14 mph60%30.04 "HgN/A
3:00 PM70 °FPartly sunny.13 mph57%30.04 "HgN/A
2:30 PM70 °FBroken clouds.13 mph57%30.04 "HgN/A
2:00 PM72 °FPartly sunny.15 mph50%30.04 "HgN/A
1:30 PM72 °FPartly sunny.13 mph47%30.04 "HgN/A
1:00 PM70 °FBroken clouds.13 mph53%30.04 "HgN/A
12:30 PM70 °FBroken clouds.15 mph57%30.04 "HgN/A
12:00 PM68 °FBroken clouds.10 mph60%30.07 "HgN/A
11:30 AM68 °FBroken clouds.15 mph60%30.07 "HgN/A
11:00 AM70 °FPartly sunny.12 mph53%30.07 "HgN/A
10:30 AM70 °FBroken clouds.13 mph53%30.07 "HgN/A
10:00 AM70 °FBroken clouds.14 mph53%30.07 "HgN/A
9:30 AM68 °FBroken clouds.15 mph53%30.07 "HgN/A
9:00 AM68 °FBroken clouds.16 mph56%30.04 "HgN/A
Weather by CustomWeather, © 2014

See weather overviewHow to use our weather pages